Location: Cul de Sac
(18.0387°N, 63.0654°W)
Time: 17:11:07
(UTC+00:00)

Cosmos 1812 Rocket - Pass Details

Date: 29 October 2020
Orbit: 605 x 633 km, 82.5° (Epoch: 28 November)

Event Time Altitude Azimuth Distance (km) Brightness Sun altitude
Rises 22:04:26 0° 165° (SSE) 2,902 7.0 -6.2°
Reaches altitude 10° 22:06:51 10° 155° (SSE) 1,993 6.0 -6.8°
Maximum altitude 22:10:46 32° 92° (E) 1,071 4.3 -7.7°
Drops below altitude 10° 22:14:41 10° 29° (NNE) 1,982 5.8 -8.6°
Sets 22:17:04 0° 19° (NNE) 2,884 6.7 -9.2°
